Weather in Preobrazhenovka

Russia / Jewish Autonomous Oblast     48°04′51″N   131°54′09″E
temp.,
°C
wind,
m/s
gust,
m/s
humid.,
%
clouds,
%
prec.,
mm/h
press.,
hPa
HPBL,
m
4 march, thu
thu401:00−11ne2396100 0.1 101626
04:00−10ne3396100 0.4 101371
07:00−11n2396100 1.6 101271
10:00−10nnw1293100 1.8 101367
13:00−7ssw1290100 0.0 1012215
16:00−5nne1195100 1.0 1009100
19:00−4nne1197100 1.3 100921
22:00−4sw1296100 1.3 100823
5 march, fri
fri501:00−3sw249898 0.0 1009117
04:00−7nnw4789100 0.0 1011179
07:00−15nw488394 0.0 1014210
10:00−17nw6127780 0.0 1019524
13:00−17wnw711650 0.0 1022704
16:00−17nw914650 0.0 10241079
19:00−21wnw614730 0.0 1027684
22:00−22wnw510780 0.0 1030249
6 march, sat
sat601:00−22wnw57810 0.0 1031142
04:00−22wnw47830 0.0 1032121
07:00−22w47850 0.0 1033121
10:00−19w46810 0.0 1033285
13:00−14w37670 0.0 1032697
16:00−10wsw47710 0.0 1030646
19:00−13wsw46760 0.0 102993
22:00−16wnw357921 0.0 103176
7 march, sun
sun701:00−18w44830 0.0 103049
04:00−18wsw478622 0.0 1029116
07:00−16wsw4885100 0.0 1028181
10:00−14sw4685100 0.1 1027202
13:00−12sw3492100 0.1 1025252
16:00−11ssw358593 0.1 1023358
19:00−13ssw228832 0.0 102321
22:00−13w338628 0.0 102421
8 march, mon
mon801:00−14w34866 0.0 102532
04:00−15w35913 0.0 102466
07:00−16wsw34910 0.0 102444
10:00−12sw36900 0.0 1024146
13:00−7sw368767 0.0 1023299
16:00−5ssw358983 0.0 1021276
19:00−6sse229068 0.0 102021
22:00−8se119084 0.0 102021